Total_Precipitation_Accumulation
0.71 0.81 0.94 1.01 0.91 0.71 0.64 0.61 0.55 0.50 0.47 0.38 0.19 0.06 0.05 0.04 0.03 0.01 0.00 0.00 0.00 0.00 0.00 0.00 0.00 0.00 0.00 0.00 0.00 0.00 0.00 0.00 0.00 0.00 0.00 0.00 0.01 0.01
0.54 0.63 0.71 0.78 0.93 0.89 0.75 0.72 0.65 0.55 0.48 0.40 0.35 0.17 0.14 0.10 0.06 0.03 0.02 0.01 0.00 0.00 0.00 0.00 0.00 0.00 0.00 0.00 0.00 0.00 0.00 0.00 0.00 0.00 0.00 0.00 0.00 0.01
0.28 0.37 0.50 0.73 0.96 0.98 0.93 0.83 0.75 0.67 0.54 0.45 0.35 0.21 0.21 0.19 0.15 0.08 0.04 0.02 0.01 0.01 0.00 0.00 0.00 0.00 0.00 0.00 0.00 0.00 0.00 0.00 0.00 0.00 0.00 0.00 0.00 0.01
0.18 0.22 0.34 0.60 0.88 1.04 1.11 1.06 0.93 0.83 0.78 0.69 0.48 0.29 0.25 0.29 0.32 0.26 0.14 0.08 0.06 0.06 0.06 0.03 0.01 0.01 0.01 0.00 0.00 0.00 0.00 0.00 0.00 0.01 0.01 0.01 0.01 0.01
0.24 0.23 0.24 0.38 0.61 0.84 0.98 1.04 1.01 0.97 0.97 0.84 0.64 0.49 0.40 0.31 0.28 0.25 0.21 0.19 0.16 0.16 0.21 0.19 0.13 0.08 0.04 0.03 0.01 0.01 0.00 0.00 0.00 0.00 0.00 0.01 0.00 0.00
0.20 0.22 0.24 0.26 0.36 0.52 0.68 0.82 0.97 1.09 1.12 1.04 0.86 0.62 0.57 0.41 0.28 0.26 0.26 0.25 0.25 0.22 0.21 0.25 0.25 0.19 0.14 0.10 0.07 0.04 0.03 0.02 0.01 0.00 0.00 0.00 0.00 0.00
0.16 0.13 0.14 0.17 0.21 0.30 0.40 0.58 0.87 1.08 1.16 1.16 1.08 0.82 0.61 0.45 0.29 0.27 0.28 0.33 0.34 0.32 0.33 0.30 0.29 0.27 0.26 0.24 0.20 0.15 0.11 0.08 0.05 0.03 0.02 0.01 0.00 0.00
0.19 0.14 0.12 0.10 0.13 0.18 0.22 0.29 0.49 0.67 0.84 0.91 0.93 0.81 0.67 0.55 0.45 0.35 0.26 0.23 0.25 0.29 0.34 0.41 0.42 0.40 0.44 0.41 0.40 0.42 0.34 0.24 0.16 0.11 0.07 0.04 0.02 0.01
0.20 0.19 0.15 0.11 0.10 0.12 0.16 0.21 0.25 0.31 0.41 0.57 0.68 0.72 0.78 0.66 0.52 0.38 0.29 0.24 0.26 0.28 0.26 0.32 0.39 0.43 0.48 0.47 0.44 0.43 0.37 0.30 0.23 0.18 0.13 0.08 0.04 0.02
0.18 0.15 0.16 0.16 0.18 0.20 0.15 0.16 0.22 0.27 0.30 0.29 0.40 0.61 0.74 0.83 0.71 0.53 0.46 0.37 0.30 0.25 0.22 0.22 0.24 0.29 0.31 0.32 0.31 0.29 0.26 0.23 0.21 0.20 0.17 0.13 0.09 0.06
0.24 0.19 0.18 0.22 0.36 0.29 0.16 0.18 0.25 0.33 0.33 0.37 0.42 0.47 0.51 0.58 0.63 0.56 0.48 0.40 0.34 0.30 0.27 0.22 0.18 0.15 0.13 0.13 0.13 0.13 0.12 0.10 0.09 0.09 0.09 0.08 0.08 0.07
0.34 0.28 0.36 0.33 0.38 0.28 0.17 0.23 0.31 0.33 0.32 0.36 0.35 0.33 0.32 0.34 0.39 0.41 0.47 0.48 0.43 0.37 0.30 0.23 0.18 0.16 0.13 0.09 0.07 0.05 0.05 0.05 0.05 0.04 0.04 0.04 0.05 0.05
0.37 0.37 0.33 0.36 0.27 0.22 0.16 0.17 0.28 0.26 0.23 0.29 0.28 0.27 0.25 0.25 0.27 0.33 0.38 0.39 0.43 0.45 0.38 0.29 0.24 0.20 0.16 0.12 0.10 0.07 0.05 0.04 0.03 0.03 0.04 0.05 0.05 0.04
0.35 0.35 0.32 0.41 0.29 0.16 0.10 0.12 0.17 0.15 0.18 0.25 0.26 0.27 0.25 0.22 0.20 0.23 0.26 0.27 0.29 0.33 0.31 0.25 0.22 0.19 0.18 0.15 0.14 0.13 0.11 0.09 0.07 0.06 0.05 0.06 0.06 0.06
0.29 0.36 0.39 0.34 0.22 0.14 0.14 0.15 0.15 0.16 0.22 0.25 0.23 0.18 0.15 0.15 0.19 0.25 0.30 0.32 0.33 0.28 0.25 0.25 0.23 0.21 0.19 0.16 0.13 0.12 0.12 0.11 0.09 0.09 0.08 0.07 0.07 0.08
0.25 0.31 0.32 0.24 0.19 0.18 0.18 0.17 0.18 0.21 0.23 0.20 0.13 0.08 0.08 0.11 0.13 0.17 0.25 0.36 0.46 0.47 0.44 0.43 0.37 0.31 0.28 0.24 0.18 0.15 0.15 0.15 0.14 0.14 0.13 0.11 0.10 0.10
0.43 0.36 0.34 0.33 0.29 0.23 0.18 0.17 0.18 0.18 0.17 0.15 0.12 0.12 0.12 0.13 0.10 0.09 0.12 0.17 0.25 0.32 0.38 0.43 0.45 0.43 0.38 0.33 0.31 0.27 0.24 0.21 0.20 0.20 0.17 0.14 0.12 0.13
0.73 0.71 0.68 0.64 0.57 0.42 0.22 0.13 0.11 0.12 0.13 0.13 0.13 0.12 0.10 0.11 0.11 0.09 0.09 0.11 0.15 0.19 0.23 0.27 0.34 0.42 0.46 0.43 0.35 0.32 0.30 0.26 0.24 0.24 0.22 0.18 0.16 0.19
0.83 0.86 0.83 0.69 0.54 0.43 0.27 0.14 0.09 0.09 0.09 0.09 0.09 0.09 0.08 0.08 0.08 0.07 0.06 0.07 0.09 0.11 0.15 0.20 0.24 0.31 0.37 0.35 0.33 0.32 0.32 0.32 0.32 0.30 0.29 0.27 0.23 0.24
0.63 0.62 0.55 0.45 0.36 0.25 0.21 0.16 0.09 0.08 0.08 0.08 0.08 0.07 0.05 0.05 0.05 0.06 0.05 0.04 0.05 0.05 0.07 0.10 0.12 0.14 0.18 0.21 0.23 0.22 0.24 0.28 0.30 0.26 0.24 0.25 0.23 0.25
0.33 0.27 0.22 0.18 0.16 0.12 0.10 0.09 0.05 0.04 0.05 0.05 0.06 0.06 0.05 0.04 0.04 0.03 0.04 0.04 0.04 0.05 0.05 0.06 0.07 0.09 0.13 0.19 0.22 0.18 0.17 0.24 0.26 0.23 0.22 0.24 0.25 0.25
0.13 0.11 0.08 0.05 0.05 0.05 0.03 0.03 0.02 0.02 0.02 0.03 0.03 0.04 0.04 0.03 0.04 0.04 0.04 0.05 0.05 0.05 0.05 0.05 0.06 0.08 0.12 0.15 0.18 0.17 0.17 0.21 0.31 0.39 0.34 0.30 0.24 0.21
0.06 0.06 0.03 0.02 0.01 0.01 0.02 0.03 0.03 0.03 0.03 0.03 0.03 0.03 0.03 0.03 0.03 0.03 0.04 0.05 0.05 0.05 0.05 0.05 0.06 0.09 0.11 0.13 0.16 0.20 0.23 0.24 0.26 0.33 0.41 0.47 0.37 0.23